T7DAH EGPE-EKVG

Flight info

Callsign T7DAH
Flight time N/A
Altitude 40000
Route BONBY DCT RAKUP DCT H6107 DCT SUDUR
Aircraft A346/H-SDE2E3FGHIJ3J4J5M1RWXY/LB1D1

Departure

Time N/A
Airport Inverness Airport (EGPE)

Arrival

Time 2026-04-29 17:46
Airport Vágar Airport (EKVG)
Time Latitude Longitude Altitude Speed Heading
2026-04-29 17:42 62.08282 -7.55757 3377 ft 171 kts 13°
2026-04-29 17:42 62.09326 -7.54615 3113 ft 171 kts 37°
2026-04-29 17:42 62.10122 -7.52743 2857 ft 169 kts 62°
2026-04-29 17:42 62.10543 -7.50480 2618 ft 164 kts 86°
2026-04-29 17:43 62.10557 -7.48113 2405 ft 155 kts 110°
2026-04-29 17:43 62.10244 -7.45967 2236 ft 149 kts 123°
2026-04-29 17:43 62.09799 -7.44008 2086 ft 148 kts 125°
2026-04-29 17:43 62.09365 -7.42026 1768 ft 149 kts 124°
2026-04-29 17:44 62.08946 -7.40032 1487 ft 146 kts 123°
2026-04-29 17:44 62.08532 -7.38073 1276 ft 142 kts 123°
2026-04-29 17:44 62.08147 -7.36137 1080 ft 141 kts 120°
2026-04-29 17:44 62.07787 -7.34217 826 ft 138 kts 120°
2026-04-29 17:45 62.07421 -7.32339 666 ft 137 kts 118°
2026-04-29 17:45 62.07045 -7.30480 471 ft 135 kts 121°
2026-04-29 17:45 62.06612 -7.28726 303 ft 131 kts 122°
2026-04-29 17:45 62.06272 -7.27381 301 ft 68 kts 118°
2026-04-29 17:46 62.06107 -7.26716 301 ft 40 kts 119°
2026-04-29 17:46 62.06459 -7.28120 300 ft 0 kts
2026-04-29 17:46 62.06565 -7.28082 301 ft 6 kts 12°
2026-04-29 17:46 62.06659 -7.27997 301 ft 15 kts 38°
2026-04-29 17:47 62.06701 -7.27943 305 ft 0 kts 30°